Home   Weather   Norwich   Past weeks
Flag for United Kingdom

Past Weather in Norwich, England, United Kingdom — Yesterday and Last 2 Weeks

Now
68 °F

Passing clouds.


Feels Like: 68 °F
Forecast: 71 / 58 °F
Wind: 9 mph from South

Location: Norwich Weather Centre

Current Time: Jul 17, 2019 at 9:51:58 pm

Latest Report: Jul 17, 2019 at 8:50 pm


Visibility: N/A

Pressure: 29.86 "Hg

Humidity: 64%

Dew Point: 55 °F

Location of NorwichLocation

Past Weather in Norwich — Graph

°F

Norwich Temperature Yesterday

Maximum temperature yesterday: 75 °F (at 12:20 pm)
Minimum temperature yesterday: 48 °F (at 3:50 am)
Average temperature yesterday: 64 °F

High & Low Weather Summary for the Past Weeks

 TemperatureHumidityPressure
High79 °F (Jul 17, 2:20 pm)100% (Jul 6, 1:20 am)30.36 "Hg (Jul 6, 1:20 am)
Low46 °F (Jul 4, 4:50 am)39% (Jul 17, 2:20 pm)29.86 "Hg (Jul 11, 12:50 pm)
Average62 °F75%30.10 "Hg
* Reported Jul 2 8:20 pm — Jul 17 8:20 pm, Norwich. Weather by CustomWeather, © 2019

Note: Actual official high and low records may vary slightly from our data, if they occured in-between our weather recording intervals... More about our weather records

Advertising

Norwich Weather History for the Previous 24 Hours

Scroll right to see more
 ConditionsComfort  
Time TempWeatherWind HumidityBarometerVisibility
8:20 pm
Wed, Jul 17
70 °FSunny.10 mph60%29.86 "Hg10 mi
7:50 pm70 °FSunny.12 mph60%29.86 "Hg10 mi
7:20 pm72 °FSunny.14 mph53%29.86 "Hg10 mi
6:50 pm72 °FPassing clouds.13 mph53%29.86 "HgN/A
6:20 pm72 °FSunny.14 mph53%29.89 "Hg10 mi
5:50 pm73 °FSunny.15 mph50%29.89 "Hg10 mi
5:20 pm73 °FPassing clouds.14 mph53%29.89 "HgN/A
4:50 pm75 °FPassing clouds.14 mph47%29.89 "HgN/A
4:20 pm75 °FPassing clouds.15 mph44%29.89 "HgN/A
3:50 pm77 °FPassing clouds.15 mph42%29.89 "HgN/A
3:20 pm77 °FPassing clouds.16 mph44%29.89 "HgN/A
2:50 pm77 °FPassing clouds.12 mph44%29.89 "HgN/A
2:20 pm79 °FPassing clouds.12 mph39%29.89 "HgN/A
1:50 pm77 °FPassing clouds.12 mph42%29.92 "HgN/A
1:20 pm77 °FPassing clouds.10 mph51%29.92 "HgN/A
12:50 pm77 °FPassing clouds.9 mph51%29.92 "HgN/A
12:20 pm75 °FScattered clouds.7 mph54%29.95 "HgN/A
11:50 am77 °FPassing clouds.7 mph47%29.95 "HgN/A
11:20 am75 °FPassing clouds.6 mph57%29.95 "HgN/A
10:50 am72 °FPassing clouds.6 mph65%29.95 "HgN/A
10:20 am72 °FPassing clouds.5 mph69%29.95 "HgN/A
9:50 am68 °FSunny.3 mph78%29.98 "Hg10 mi
9:20 am66 °FPassing clouds.5 mph78%29.98 "HgN/A
8:50 am66 °FSunny.3 mph78%29.98 "Hg10 mi
8:20 am64 °FSunny.3 mph83%29.98 "Hg10 mi
7:50 am64 °FPassing clouds.5 mph83%29.98 "HgN/A
7:20 am63 °FSunny.5 mph83%29.98 "Hg10 mi
6:50 am63 °FSunny.6 mph83%29.98 "Hg10 mi
6:20 am61 °FSunny.5 mph88%29.98 "Hg10 mi
5:50 am61 °FSunny.5 mph88%29.98 "Hg10 mi
5:20 am61 °FCool.5 mph88%29.98 "HgN/A
4:50 am61 °FCool.2 mph88%29.98 "HgN/A
4:20 am61 °FCool.1 mph88%29.98 "HgN/A
3:50 am63 °FMild.5 mph83%29.98 "HgN/A
3:20 am64 °FMild.6 mph78%30.01 "HgN/A
2:50 am64 °FMild.6 mph78%30.01 "HgN/A
2:20 am63 °FMild.7 mph83%30.01 "HgN/A
1:50 am63 °FMild.6 mph83%30.04 "HgN/A
1:20 am63 °FMild.8 mph77%30.04 "HgN/A
12:50 am63 °FMild.5 mph77%30.04 "HgN/A
12:20 am64 °FMild.7 mph68%30.04 "HgN/A
11:50 pm
Tue, Jul 16
64 °FMild.8 mph73%30.04 "HgN/A
11:20 pm64 °FMild.7 mph73%30.04 "HgN/A
10:50 pm63 °FMild.8 mph77%30.04 "HgN/A
10:20 pm64 °FMild.6 mph78%30.04 "HgN/A
9:50 pm66 °FPassing clouds.6 mph73%30.04 "HgN/A
9:20 pm66 °FPassing clouds.8 mph73%30.04 "HgN/A
Weather by CustomWeather, © 2019

See weather overview